TimeCST,TemperatureF,Dew PointF,Humidity,Sea Level PressureIn,VisibilityMPH,Wind Direction,Wind SpeedMPH,Gust SpeedMPH,PrecipitationIn,Events,Conditions,WindDirDegrees,DateUTC
12:15 AM,24.6,21.2,87,30.04,5.0,ENE,8.1,-,N/A,,Overcast,60,2013-12-14 06:15:00
12:35 AM,24.4,21.2,87,30.03,5.0,NE,6.9,-,N/A,,Overcast,40,2013-12-14 06:35:00
12:55 AM,24.4,20.8,86,30.03,7.0,NE,11.5,-,N/A,,Overcast,40,2013-12-14 06:55:00
1:15 AM,24.3,20.8,87,30.02,5.0,NE,12.7,-,N/A,,Overcast,40,2013-12-14 07:15:00
1:35 AM,24.1,20.8,87,30.03,7.0,NE,10.4,18.4,N/A,,Overcast,40,2013-12-14 07:35:00
1:55 AM,23.9,20.8,88,30.03,7.0,NE,9.2,-,N/A,,Overcast,40,2013-12-14 07:55:00
2:15 AM,24.1,21.0,88,30.03,7.0,NE,8.1,16.1,N/A,,Overcast,40,2013-12-14 08:15:00
2:35 AM,23.9,21.0,89,30.03,5.0,NE,10.4,17.3,N/A,,Overcast,40,2013-12-14 08:35:00
2:55 AM,23.0,20.3,89,30.03,5.0,NNE,13.8,21.9,N/A,,Overcast,30,2013-12-14 08:55:00
3:15 AM,22.1,20.1,92,30.03,4.0,NE,9.2,20.7,N/A,,Overcast,40,2013-12-14 09:15:00
3:35 AM,22.1,20.3,93,30.04,4.0,NNE,8.1,19.6,N/A,,Overcast,30,2013-12-14 09:35:00
3:55 AM,21.6,19.8,93,30.04,4.0,NNE,15.0,20.7,N/A,,Overcast,20,2013-12-14 09:55:00
4:15 AM,21.2,19.4,93,30.04,4.0,NNE,11.5,18.4,N/A,,Overcast,30,2013-12-14 10:15:00
4:35 AM,21.0,19.4,93,30.04,4.0,NNE,11.5,17.3,N/A,,Overcast,20,2013-12-14 10:35:00
4:55 AM,20.8,19.2,93,30.05,4.0,North,9.2,16.1,N/A,,Overcast,10,2013-12-14 10:55:00
5:15 AM,20.3,18.9,94,30.05,5.0,North,11.5,17.3,N/A,,Overcast,10,2013-12-14 11:15:00
5:35 AM,20.3,18.5,93,30.05,5.0,North,12.7,17.3,N/A,,Overcast,10,2013-12-14 11:35:00
5:55 AM,20.3,18.9,94,30.06,5.0,North,10.4,16.1,N/A,,Overcast,360,2013-12-14 11:55:00
6:15 AM,19.9,18.5,94,30.07,5.0,North,10.4,17.3,N/A,,Overcast,10,2013-12-14 12:15:00
6:35 AM,19.8,18.3,94,30.08,5.0,North,8.1,-,N/A,,Overcast,10,2013-12-14 12:35:00
6:55 AM,19.8,18.1,93,30.09,5.0,North,10.4,17.3,N/A,,Overcast,10,2013-12-14 12:55:00
7:15 AM,19.8,18.1,93,30.09,5.0,North,11.5,-,N/A,,Overcast,10,2013-12-14 13:15:00
7:35 AM,19.9,18.3,93,30.10,5.0,North,9.2,-,N/A,,Overcast,360,2013-12-14 13:35:00
7:55 AM,19.9,18.3,93,30.10,4.0,North,8.1,-,N/A,,Overcast,360,2013-12-14 13:55:00
8:15 AM,19.8,18.1,93,30.10,4.0,North,10.4,-,N/A,,Overcast,10,2013-12-14 14:15:00
8:35 AM,19.8,18.0,93,30.10,4.0,North,9.2,-,N/A,,Overcast,360,2013-12-14 14:35:00
8:55 AM,19.8,18.0,93,30.11,3.0,North,11.5,17.3,N/A,,Overcast,360,2013-12-14 14:55:00
9:15 AM,19.8,18.0,93,30.11,3.0,North,11.5,-,N/A,,Overcast,360,2013-12-14 15:15:00
9:35 AM,19.8,18.0,93,30.12,3.0,North,12.7,17.3,N/A,,Overcast,350,2013-12-14 15:35:00
9:55 AM,19.6,18.1,94,30.13,2.5,North,13.8,19.6,N/A,,Overcast,350,2013-12-14 15:55:00
10:15 AM,19.8,18.3,94,30.12,2.0,North,11.5,-,N/A,,Overcast,360,2013-12-14 16:15:00
10:35 AM,19.8,18.0,93,30.13,2.5,North,10.4,17.3,N/A,,Overcast,350,2013-12-14 16:35:00
10:55 AM,19.4,17.6,93,30.14,3.0,North,12.7,-,N/A,,Overcast,350,2013-12-14 16:55:00
11:15 AM,19.8,17.6,91,30.13,2.5,North,11.5,17.3,N/A,,Overcast,350,2013-12-14 17:15:00
11:35 AM,19.9,17.8,91,30.12,2.5,NNW,9.2,-,N/A,,Overcast,340,2013-12-14 17:35:00
11:55 AM,19.9,17.6,91,30.11,4.0,NNW,10.4,-,N/A,,Overcast,340,2013-12-14 17:55:00
12:15 PM,20.3,17.2,88,30.11,5.0,NNW,8.1,-,N/A,,Overcast,330,2013-12-14 18:15:00
12:35 PM,20.8,17.1,85,30.10,7.0,NW,12.7,17.3,N/A,,Overcast,320,2013-12-14 18:35:00
12:55 PM,21.0,16.7,83,30.10,7.0,NNW,15.0,-,N/A,,Overcast,330,2013-12-14 18:55:00
1:15 PM,21.2,16.5,82,30.10,7.0,NNW,13.8,18.4,N/A,,Overcast,330,2013-12-14 19:15:00
1:35 PM,21.4,16.7,82,30.10,7.0,NNW,12.7,-,N/A,,Overcast,340,2013-12-14 19:35:00
1:55 PM,21.4,16.3,81,30.11,7.0,NNW,12.7,-,N/A,,Overcast,340,2013-12-14 19:55:00
2:15 PM,21.2,16.2,81,30.10,7.0,NNW,13.8,-,N/A,,Overcast,330,2013-12-14 20:15:00
2:35 PM,21.6,16.3,80,30.10,7.0,NW,12.7,-,N/A,,Overcast,320,2013-12-14 20:35:00
2:55 PM,21.2,16.2,81,30.10,7.0,NW,13.8,-,N/A,,Overcast,320,2013-12-14 20:55:00
3:15 PM,21.4,15.8,79,30.11,7.0,NW,11.5,-,N/A,,Overcast,320,2013-12-14 21:15:00
3:35 PM,21.6,16.2,80,30.11,7.0,NW,11.5,17.3,N/A,,Overcast,310,2013-12-14 21:35:00
3:55 PM,20.8,15.4,80,30.12,10.0,NNW,11.5,19.6,N/A,,Overcast,330,2013-12-14 21:55:00
4:15 PM,20.1,14.4,78,30.12,10.0,NW,11.5,-,N/A,,Overcast,320,2013-12-14 22:15:00
4:35 PM,18.7,13.1,79,30.13,10.0,NW,9.2,-,N/A,,Scattered Clouds,320,2013-12-14 22:35:00
4:55 PM,17.6,12.7,81,30.13,10.0,NW,10.4,-,N/A,,Clear,320,2013-12-14 22:55:00
5:15 PM,17.2,12.2,81,30.14,10.0,NW,11.5,-,N/A,,Clear,320,2013-12-14 23:15:00
5:35 PM,16.7,11.8,81,30.14,10.0,NNW,9.2,-,N/A,,Scattered Clouds,330,2013-12-14 23:35:00
5:55 PM,15.4,10.9,82,30.14,10.0,NW,6.9,-,N/A,,Clear,320,2013-12-14 23:55:00
6:15 PM,14.7,10.4,83,30.15,10.0,NW,8.1,-,N/A,,Clear,320,2013-12-15 00:15:00
6:35 PM,15.1,10.9,84,30.16,10.0,WNW,9.2,-,N/A,,Scattered Clouds,300,2013-12-15 00:35:00
6:55 PM,15.1,10.4,82,30.15,10.0,WNW,9.2,-,N/A,,Scattered Clouds,300,2013-12-15 00:55:00
7:15 PM,14.7,9.9,81,30.15,10.0,WNW,8.1,-,N/A,,Clear,300,2013-12-15 01:15:00
7:35 PM,14.5,9.9,82,30.16,10.0,WNW,9.2,-,N/A,,Clear,300,2013-12-15 01:35:00
7:55 PM,14.0,9.5,82,30.16,10.0,WNW,6.9,-,N/A,,Clear,300,2013-12-15 01:55:00
8:15 PM,13.8,9.3,82,30.16,10.0,WNW,6.9,-,N/A,,Clear,300,2013-12-15 02:15:00
8:35 PM,13.8,9.3,82,30.16,10.0,WNW,10.4,-,N/A,,Clear,300,2013-12-15 02:35:00
8:55 PM,14.7,10.0,82,30.16,10.0,WNW,10.4,-,N/A,,Mostly Cloudy,290,2013-12-15 02:55:00
9:15 PM,15.4,10.4,80,30.16,10.0,WNW,9.2,-,N/A,,Overcast,300,2013-12-15 03:15:00
9:35 PM,15.6,10.4,80,30.16,10.0,WNW,11.5,-,N/A,,Overcast,300,2013-12-15 03:35:00
9:55 PM,15.6,10.4,80,30.16,10.0,WNW,10.4,19.6,N/A,,Overcast,300,2013-12-15 03:55:00
10:15 PM,15.8,10.8,80,30.16,10.0,WNW,8.1,-,N/A,,Overcast,300,2013-12-15 04:15:00
10:35 PM,15.8,10.8,80,30.15,10.0,WNW,10.4,17.3,N/A,,Overcast,300,2013-12-15 04:35:00
10:55 PM,16.3,10.9,79,30.15,10.0,WNW,10.4,20.7,N/A,,Overcast,300,2013-12-15 04:55:00
11:15 PM,16.3,10.9,79,30.14,10.0,WNW,10.4,-,N/A,,Overcast,300,2013-12-15 05:15:00
11:35 PM,16.2,10.9,80,30.14,10.0,NW,9.2,-,N/A,,Overcast,310,2013-12-15 05:35:00
11:55 PM,15.4,9.7,78,30.14,10.0,NW,13.8,20.7,N/A,,Overcast,310,2013-12-15 05:55:00